Flag for Russia Weather past 2 weeks in Samara, Russia

Now
63 °F

Fog.


Feels Like: 63 °F
Forecast: 62 / 84 °F
Wind: 6 mph from Northwest

Location: Samara

Current Time: Aug 21, 2014 at 5:08:30 AM

Latest Report: Aug 21, 2014 at 4:30 AM


Visibility: 0 mi

Pressure: 29.95 "Hg

Humidity: 94%

Dew point: 61 °F

Location of SamaraLocation

Historic Weather in Samara — Graph

°F

Samara temperature yesterday

Maximum temperature yesterday: 75 °F (at 1:30 PM)
Minimum temperature yesterday: 64 °F (at 8:00 AM)
Average temperature yesterday: 69 °F

Past Weeks' High & Low Weather Summary

 TemperatureHumidityPressure
High99 °F (Aug 16, 2:00 PM)88% (Aug 14, 8:30 AM)30.01 "Hg (Aug 14, 8:30 AM)
Low55 °F (Aug 13, 4:30 AM)12% (Aug 9, 12:00 PM)29.56 "Hg (Aug 17, 3:00 PM)
Average74 °F51%29.84 "Hg
* Reported Aug 6 3:00 AM — Aug 21 3:30 AM, Samara, Weather by CustomWeather, © 2014

Note: Actual official high and low records may vary slightly from our data, if they occured in-between our weather recording intervals... More about our weather records

Advertising

Samara weather history for previous 24 hours

 ConditionsComfort  
Time TempWeatherWind HumidityBarometerVisibility
3:30 AM
Aug 21
63 °FFog.6 mph88%29.95 "Hg1 mi
3:00 AM64 °FFog.8 mph83%29.95 "Hg1 mi
2:30 AM64 °FFog.8 mph83%29.95 "Hg1 mi
2:00 AM64 °FFog.8 mph88%29.95 "Hg2 mi
1:30 AM64 °FFog.6 mph83%29.95 "Hg2 mi
1:00 AM66 °FClear.6 mph83%29.95 "Hg10 mi
12:30 AM64 °FClear.3 mph83%29.95 "Hg10 mi
12:00 AM66 °FClear.6 mph83%29.95 "Hg10 mi
11:30 PM
Aug 20
66 °FClear.6 mph83%29.95 "Hg10 mi
11:00 PM66 °FClear.6 mph83%29.95 "Hg10 mi
10:30 PM68 °FClear.6 mph78%29.95 "Hg10 mi
10:00 PM68 °FClear.6 mph78%29.95 "Hg10 mi
9:30 PM68 °FClear.6 mph83%29.95 "Hg10 mi
9:00 PM68 °FClear.6 mph83%29.95 "Hg10 mi
8:30 PM70 °FSunny.6 mph78%29.95 "Hg10 mi
8:00 PM72 °FBroken clouds.6 mph73%29.92 "HgN/A
7:30 PM72 °FBroken clouds.8 mph73%29.92 "HgN/A
7:00 PM72 °FCloudy.8 mph73%29.92 "HgN/A
6:30 PM72 °FCloudy.6 mph73%29.95 "HgN/A
6:00 PM72 °FCloudy.6 mph73%29.95 "HgN/A
5:30 PM70 °FMore clouds than sun.6 mph73%29.92 "HgN/A
5:00 PM70 °FMore clouds than sun.6 mph73%29.92 "HgN/A
4:30 PM70 °FSprinkles. More clouds than sun.8 mph78%29.92 "Hg2 mi
4:00 PM70 °FThunderstorms. More clouds than sun.8 mph73%29.92 "Hg3 mi
3:30 PM70 °FThunderstorms. More clouds than sun.8 mph78%29.92 "Hg3 mi
3:00 PM72 °FThunderstorms. More clouds than sun.6 mph73%29.95 "Hg3 mi
2:30 PM72 °FThunderstorms. More clouds than sun.6 mph73%29.95 "Hg3 mi
2:00 PM75 °FThunderstorms. More clouds than sun.10 mph57%29.92 "HgN/A
1:30 PM75 °FMore clouds than sun.8 mph57%29.92 "HgN/A
1:00 PM73 °FMore clouds than sun.8 mph61%29.92 "HgN/A
12:30 PM72 °FCloudy.6 mph69%29.92 "HgN/A
12:00 PM70 °FMore clouds than sun.6 mph73%29.92 "HgN/A
11:30 AM68 °FSprinkles. More clouds than sun.6 mph78%29.92 "HgN/A
11:00 AM68 °FMore clouds than sun.8 mph78%29.92 "HgN/A
10:30 AM66 °FMore clouds than sun.8 mph83%29.92 "HgN/A
10:00 AM66 °FSprinkles. More clouds than sun.3 mph83%29.95 "HgN/A
9:30 AM66 °FMore clouds than sun.8 mph83%29.92 "HgN/A
9:00 AM66 °FSprinkles. Mostly cloudy.8 mph78%29.95 "HgN/A
8:30 AM66 °FSprinkles. Mostly cloudy.6 mph78%29.98 "HgN/A
8:00 AM64 °FSprinkles. Mostly cloudy.6 mph83%29.95 "HgN/A
7:30 AM66 °FSprinkles. Mostly cloudy.6 mph78%29.98 "Hg2 mi
7:00 AM66 °FThunderstorms. Mostly cloudy.8 mph78%29.92 "Hg2 mi
6:30 AM68 °FThunderstorms. Mostly cloudy.13 mph69%29.89 "HgN/A
6:00 AM66 °FThunderstorms. Mostly cloudy.8 mph73%29.92 "HgN/A
5:30 AM68 °FSprinkles. Mostly cloudy.10 mph69%29.92 "HgN/A
5:00 AM68 °FMostly cloudy.13 mph69%29.89 "HgN/A
Weather by CustomWeather, © 2014

See weather overviewHow to use our weather pages